Bellaire, MI

10:04 PM EDT on June 25, 2017 (GMT -0400)
Antrim County

Weather History for KACB - August, 2013

Change the Weather History Date:

Thursday, August 1, 2013

  Actual Average (KCVX) Record (KCVX)
Temperature  
Mean Temperature 64 °F -  
Max Temperature 74 °F 84 °F 95 °F (2001)
Min Temperature 55 °F 65 °F 53 °F (2012)
Growing Degree Days 14 (Base 50)    
Moisture  
Dew Point 56 °F    
Average Humidity 77    
Maximum Humidity 98    
Minimum Humidity 47    
Precipitation  
Precipitation 0.00 in - - ()
Sea Level Pressure  
Sea Level Pressure 29.89 in    
Wind  
Wind Speed 2 mph (West)    
Max Wind Speed 12 mph    
Max Gust Speed 18 mph    
Visibility 8 miles    
Events      
Averages and records for this station are not official NWS values.
T = Trace of Precipitation, MM = Missing Value Source: NWS Daily Summary

Daily Weather History Graph

Daily Weather History Graph

Search for Another Location

Airport or City:

Trip Planner

Search our weather history database for the weather conditions in past years. The results will help you decide how hot, cold, wet, or windy it might be!

Date:

Astronomy

Aug. 01, 2013 Rise Set
Actual Time 6:26 AM EDT 9:07 PM EDT
Civil Twilight 5:52 AM EDT 9:40 PM EDT
Nautical Twilight 5:10 AM EDT 10:22 PM EDT
Astronomical Twilight 4:21 AM EDT 11:11 PM EDT
Moon 2:01 AM EDT (8/1) 5:17 PM EDT (8/1)
Length of Visible Light 15h 47m
Length of Day
14h 40m
Waning Crescent, 23% of the Moon is Illuminated
Aug 1
Waning Crescent
Aug 6
New
Aug 14
First Quarter
Aug 20
Full
Aug 28
Last Quarter

Hourly Weather History & Observations

Time (EDT) Temp. Dew Point Humidity Pressure Visibility Wind Dir Wind Speed Gust Speed Precip Events Conditions
12:14 AM 60.1 °F 58.3 °F 94% 29.91 in 10.0 mi Calm Calm - N/A   Overcast
12:35 AM 60.1 °F 58.5 °F 94% 29.91 in 10.0 mi Calm Calm - N/A   Overcast
12:55 AM 59.4 °F 57.7 °F 94% 29.90 in 10.0 mi Calm Calm - N/A   Scattered Clouds
1:14 AM 58.3 °F 57.2 °F 96% 29.90 in 7.0 mi Calm Calm - N/A   Clear
1:35 AM 57.7 °F 56.7 °F 96% 29.89 in 2.0 mi Calm Calm - N/A   Overcast
1:55 AM 57.2 °F 55.9 °F 96% 29.89 in 1.0 mi Calm Calm - N/A   Mostly Cloudy
2:14 AM 56.5 °F 55.6 °F 97% 29.88 in 1.2 mi Calm Calm - N/A   Mostly Cloudy
2:35 AM 57.2 °F 56.3 °F 97% 29.88 in 3.0 mi Calm Calm - N/A   Overcast
2:55 AM 57.2 °F 56.3 °F 97% 29.88 in 2.0 mi Calm Calm - N/A   Overcast
3:14 AM 56.5 °F 55.8 °F 97% 29.88 in 3.0 mi Calm Calm - N/A   Mostly Cloudy
3:35 AM 56.7 °F 56.1 °F 98% 29.88 in 7.0 mi Calm Calm - N/A   Mostly Cloudy
3:55 AM 56.8 °F 56.3 °F 98% 29.87 in 7.0 mi Calm Calm - N/A   Overcast
4:14 AM 56.3 °F 55.6 °F 97% 29.88 in 2.0 mi Calm Calm - N/A   Mostly Cloudy
4:35 AM 56.3 °F 55.6 °F 97% 29.88 in 4.0 mi Calm Calm - N/A   Mostly Cloudy
4:54 AM 56.3 °F 55.6 °F 97% 29.88 in 7.0 mi Calm Calm - N/A   Mostly Cloudy
5:15 AM 55.9 °F 55.4 °F 98% 29.88 in 5.0 mi Calm Calm - N/A   Overcast
5:35 AM 55.6 °F 54.9 °F 97% 29.88 in 4.0 mi Calm Calm - N/A   Overcast
5:54 AM 55.8 °F 55.0 °F 97% 29.88 in 5.0 mi Calm Calm - N/A   Overcast
6:15 AM 56.5 °F 55.8 °F 97% 29.88 in 7.0 mi Calm Calm - N/A   Overcast
6:35 AM 57.0 °F 56.3 °F 97% 29.88 in 10.0 mi Calm Calm - N/A   Overcast
6:54 AM 57.4 °F 56.7 °F 97% 29.88 in 7.0 mi Calm Calm - N/A   Overcast
7:15 AM 58.6 °F 57.9 °F 97% 29.89 in 10.0 mi Calm Calm - N/A   Overcast
7:35 AM 60.4 °F 59.9 °F 98% 29.89 in 5.0 mi Calm Calm - N/A   Overcast
7:54 AM 61.7 °F 61.0 °F 97% 29.88 in 7.0 mi SSE 3.5 mph - N/A   Overcast
8:15 AM 62.2 °F 61.3 °F 97% 29.88 in 7.0 mi South 3.5 mph - N/A   Overcast
8:34 AM 62.8 °F 61.9 °F 97% 29.89 in 7.0 mi SSE 3.5 mph - N/A   Overcast
8:55 AM 63.9 °F 62.6 °F 96% 29.89 in 10.0 mi Calm Calm - N/A   Overcast
9:15 AM 64.9 °F 62.8 °F 93% 29.89 in 10.0 mi Calm Calm - N/A   Mostly Cloudy
9:34 AM 66.9 °F 61.9 °F 84% 29.89 in 10.0 mi NW 5.8 mph - N/A   Scattered Clouds
9:55 AM 67.3 °F 61.7 °F 82% 29.89 in 10.0 mi Calm Calm - N/A   Scattered Clouds
10:15 AM 68.9 °F 59.9 °F 73% 29.88 in 10.0 mi WSW 3.5 mph - N/A   Scattered Clouds
10:35 AM 69.1 °F 59.9 °F 72% 29.89 in 10.0 mi WSW 3.5 mph - N/A   Clear
10:55 AM 68.4 °F 60.3 °F 75% 29.89 in 10.0 mi West 3.5 mph - N/A   Clear
11:14 AM 69.4 °F 59.9 °F 72% 29.89 in 10.0 mi WNW 3.5 mph - N/A   Clear
11:35 AM 70.2 °F 59.9 °F 70% 29.89 in 10.0 mi NW 4.6 mph - N/A   Scattered Clouds
11:55 AM 70.9 °F 57.6 °F 63% 29.90 in 10.0 mi Calm Calm - N/A   Scattered Clouds
12:14 PM 71.8 °F 55.2 °F 56% 29.89 in 10.0 mi NW 4.6 mph - N/A   Clear
12:35 PM 71.8 °F 54.3 °F 54% 29.90 in 10.0 mi WNW 8.1 mph - N/A   Clear
12:55 PM 72.5 °F 54.0 °F 52% 29.90 in 10.0 mi WNW 6.9 mph - N/A   Clear
1:14 PM 72.0 °F 54.3 °F 54% 29.90 in 10.0 mi NW 9.2 mph - N/A   Clear
1:35 PM 72.3 °F 54.5 °F 53% 29.90 in 10.0 mi West 3.5 mph - N/A   Clear
1:55 PM 73.0 °F 55.4 °F 54% 29.89 in 10.0 mi WNW 8.1 mph - N/A   Clear
2:15 PM 73.6 °F 53.6 °F 50% 29.89 in 10.0 mi WSW 6.9 mph 18.4 mph N/A   Clear
2:35 PM 73.6 °F 54.0 °F 50% 29.89 in 10.0 mi West 4.6 mph - N/A   Scattered Clouds
2:55 PM 74.3 °F 54.0 °F 49% 29.89 in 10.0 mi West 6.9 mph - N/A   Scattered Clouds
3:15 PM 73.6 °F 54.3 °F 51% 29.89 in 10.0 mi West 11.5 mph 16.1 mph N/A   Scattered Clouds
3:35 PM 73.8 °F 54.7 °F 51% 29.89 in 10.0 mi West 9.2 mph - N/A   Scattered Clouds
3:55 PM 73.6 °F 52.3 °F 47% 29.89 in 10.0 mi West 11.5 mph 17.3 mph N/A   Scattered Clouds
4:15 PM 73.4 °F 52.7 °F 48% 29.89 in 10.0 mi West 11.5 mph 17.3 mph N/A   Clear
4:35 PM 73.0 °F 52.5 °F 48% 29.90 in 10.0 mi West 10.4 mph 17.3 mph N/A   Clear
4:55 PM 72.7 °F 52.7 °F 49% 29.90 in 10.0 mi WSW 8.1 mph 17.3 mph N/A   Clear
5:15 PM 72.7 °F 52.7 °F 49% 29.90 in 10.0 mi West 6.9 mph - N/A   Clear
5:35 PM 72.5 °F 53.6 °F 51% 29.90 in 10.0 mi WNW 8.1 mph - N/A   Clear
5:55 PM 72.3 °F 53.2 °F 51% 29.90 in 10.0 mi WNW 8.1 mph - N/A   Clear
6:15 PM 72.5 °F 54.1 °F 52% 29.89 in 10.0 mi WNW 4.6 mph - N/A   Clear
6:35 PM 70.5 °F 54.0 °F 56% 29.89 in 10.0 mi WNW 5.8 mph - N/A   Scattered Clouds
6:55 PM 71.1 °F 54.7 °F 56% 29.89 in 10.0 mi West 3.5 mph - N/A   Overcast
7:15 PM 72.0 °F 55.2 °F 55% 29.88 in 10.0 mi West 5.8 mph - N/A   Overcast
7:35 PM 71.6 °F 54.0 °F 54% 29.88 in 10.0 mi WNW 3.5 mph - N/A   Scattered Clouds
7:55 PM 71.1 °F 54.1 °F 55% 29.88 in 10.0 mi West 3.5 mph - N/A   Clear
8:15 PM 69.1 °F 55.2 °F 61% 29.88 in 10.0 mi Calm Calm - N/A   Scattered Clouds
8:35 PM 67.5 °F 57.4 °F 70% 29.88 in 10.0 mi Calm Calm - N/A   Overcast
8:55 PM 66.2 °F 58.3 °F 76% 29.88 in 10.0 mi Calm Calm - N/A   Overcast
9:15 PM 65.3 °F 58.3 °F 78% 29.87 in 10.0 mi Calm Calm - N/A   Overcast
9:36 PM 63.1 °F 57.9 °F 83% 29.88 in 10.0 mi Calm Calm - N/A   Scattered Clouds
9:55 PM 60.8 °F 57.2 °F 88% 29.88 in 10.0 mi Calm Calm - N/A   Clear
10:15 PM 59.9 °F 56.8 °F 90% 29.89 in 10.0 mi Calm Calm - N/A   Mostly Cloudy
10:36 PM 59.7 °F 56.8 °F 90% 29.89 in 10.0 mi Calm Calm - N/A   Scattered Clouds
10:55 PM 58.3 °F 56.1 °F 93% 29.89 in 10.0 mi Calm Calm - N/A   Clear
11:15 PM 58.1 °F 56.5 °F 94% 29.90 in 7.0 mi Calm Calm - N/A   Scattered Clouds
11:35 PM 57.4 °F 56.3 °F 96% 29.90 in 10.0 mi Calm Calm - N/A   Mostly Cloudy
11:55 PM 57.2 °F 56.3 °F 97% 29.89 in 7.0 mi Calm Calm - N/A   Mostly Cloudy